Regional Weather Roundup
Issued by NWS

Home | Current Version | Previous Version | Graphics & Text | Print | Product List | Glossary On
Versions: 1 2 3 4 5 6 7 8 9 10 11 12 13 14 15 16 17 18 19 20 21 22 23 24 25 26 27 28 29 30 31 32 33 34 35 36 37 38 39 40 41 42 43 44 45 46 47 48 49 50
000
ASUS43 KLSX 201407
RWRMO

WEATHER SUMMARY FOR MISSOURI
NATIONAL WEATHER SERVICE SPRINGFIELD MO
900 AM CDT FRI OCT 20 2017

NOTE: "FAIR" INDICATES FEW OR NO CLOUDS BELOW 12,000 FEET WITH NO
       SIGNIFICANT WEATHER AND/OR OBSTRUCTIONS TO VISIBILITY.
       CURRENT SKY AND/OR WEATHER CONDITIONS ARE NOT AVAILABLE FOR
       CHILLICOTHE AND FARMINGTON.

MOZ001>031-035>038-043-044-053-054-201500-
...NORTHERN AND WESTERN MISSOURI...

CITY           SKY/WX    TMP DP  RH WIND       PRES   REMARKS
KANSAS CTY INT CLOUDY    60  53  77 S14       30.07S
KANSAS C DTWN  MOSUNNY   61  53  75 S9        30.08R
LEE`S SUMMIT   CLOUDY    56  52  86 S10       30.10R
ST JOSEPH      MOSUNNY   61  54  77 S9        30.05S
CHILLICOTHE      N/A     55  52  89 SE5       30.11S
KIRKSVILLE     SUNNY     59  53  80 S6        30.13S

$$
MOZ066>068-077>081-088>096-101>105-201500-
...SOUTHWEST MISSOURI...

CITY           SKY/WX    TMP DP  RH WIND       PRES   REMARKS
SPRINGFIELD    MOSUNNY   58  53  84 SE8       30.15F
JOPLIN         SUNNY     57  54  89 SE8       30.13S
BRANSON        PTSUNNY   55  52  88 SE7       30.19S

$$
MOZ032>034-039>042-045>050-055>058-069>072-201500-
...CENTRAL MISSOURI...

CITY           SKY/WX    TMP DP  RH WIND       PRES   REMARKS
COLUMBIA       SUNNY     55  52  89 S8        30.17S
JEFFERSON CITY CLOUDY    53  49  86 SE5       30.17F
ROLLA          CLOUDY    59  51  75 S10       30.20R
SEDALIA        MOSUNNY   62  54  74 S9        30.14S
WHITEMAN AFB   MOSUNNY   57  53  84 S7        30.08S
WARRENSBURG    MOSUNNY   55  50  82 S5        30.11S
OSAGE BEACH    PTSUNNY   54  51  90 SE6       30.18S

$$
MOZ051-052-059>065-201500-
...EAST CENTRAL MISSOURI...

CITY           SKY/WX    TMP DP  RH WIND       PRES   REMARKS
ST LOUIS INTL  MOSUNNY   58  54  86 E6        30.23R
SPIRIT OF STL  SUNNY     55  54  96 CALM      30.22R
ST CHARLES     SUNNY     57  54  89 E5        30.22R FOG

$$
MOZ072>076-082>087-097>100-106>115-201500-
...SOUTH CENTRAL AND SOUTHEAST MISSOURI...

CITY           SKY/WX    TMP DP  RH WIND       PRES   REMARKS
CAPE GIRARDEAU SUNNY     57  52  83 CALM      30.26R
FARMINGTON     SUNNY     59  51  75 S8        30.24R
POPLAR BLUFF   CLOUDY    53  51  93 CALM      30.25R
WEST PLAINS    CLOUDY    53  50  89 CALM      30.22S

$$



USA.gov is the U.S. government's official web portal to all federal, state and local government web resources and services.